Dewpoint
58 56 63 66 65 66 65 66 67 68 69 69 69 69 69 68 69 68 68 68 68 68 69 67 66 66 67 67 67 68 68 69 68 69 69 70 70 69 69 70 69 67 70
54 55 65 65 66 67 66 68 69 69 69 69 68 68 68 67 67 67 67 67 68 68 68 68 68 68 65 66 67 67 68 67 68 69 69 69 69 69 69 69 69 67 67
54 58 64 68 68 68 68 69 69 69 69 68 67 67 66 65 64 63 63 64 64 64 65 66 65 65 64 64 65 66 66 66 64 66 66 63 65 68 69 69 69 68 69
54 61 64 67 67 68 68 68 68 68 66 65 64 63 63 63 63 62 62 62 62 62 62 62 62 62 62 62 63 63 64 65 64 64 60 60 60 65 66 68 68 68 68
58 61 63 65 65 65 65 65 65 64 63 62 62 62 62 61 61 61 61 60 60 59 59 59 59 59 59 60 60 59 61 63 64 63 63 65 63 64 65 65 65 67 68
57 59 62 63 63 64 63 62 62 62 61 61 60 60 60 59 59 58 57 57 57 57 56 56 56 56 56 57 56 56 54 58 60 57 57 57 63 67 68 66 66 65 65
55 57 59 60 61 61 60 60 60 60 60 59 59 58 58 57 56 56 55 55 55 54 54 53 53 53 53 53 53 52 49 44 34 50 43 48 58 64 65 64 64 66 66
52 51 54 57 58 58 58 57 57 56 56 56 55 55 55 55 54 54 53 53 53 52 52 51 50 50 50 50 49 47 45 39 22 27 36 42 55 60 60 59 60 62 64
46 48 47 48 53 55 54 53 53 52 51 51 50 51 51 51 51 51 50 50 50 50 49 48 46 46 46 46 45 42 40 38 15 21 28 41 53 56 56 55 55 56 58
41 44 42 39 37 39 44 49 49 48 47 47 46 45 47 46 46 46 45 46 47 46 46 44 44 42 41 42 42 39 36 32 15 18 23 39 49 52 53 53 53 53 54
35 38 34 32 31 34 37 43 44 45 44 43 40 38 34 29 31 34 41 42 42 43 42 42 40 38 34 34 37 35 30 16 15 17 19 42 46 48 49 49 50 51 51
32 32 31 29 28 26 24 25 25 25 24 23 22 22 24 28 28 30 34 37 37 36 37 38 36 34 27 19 19 25 17 16 16 17 19 41 44 47 47 48 48 48 49
33 32 30 27 26 25 24 25 24 24 24 22 20 21 21 21 21 22 23 23 23 28 21 22 20 20 18 19 18 17 17 17 16 17 24 40 43 46 47 46 46 47 47
32 31 30 27 25 26 30 25 23 22 22 22 21 21 21 22 20 19 20 22 22 22 20 21 20 19 19 19 19 18 17 17 16 18 22 38 41 44 46 49 50 52 53
31 31 29 27 26 26 25 26 25 24 22 22 22 21 21 21 20 20 19 21 22 22 22 20 20 19 19 20 19 19 18 17 17 19 20 35 38 41 45 47 49 50 51
30 30 30 28 27 26 26 24 23 23 22 22 22 23 22 21 20 20 20 21 22 22 22 22 21 20 20 20 18 19 18 17 19 18 20 21 34 37 41 44 44 45 45
30 29 29 29 28 25 25 24 24 23 22 22 21 21 22 23 21 21 21 21 22 22 22 21 21 22 19 19 18 19 18 19 19 19 15 17 23 31 36 40 40 40 41
30 28 29 27 27 26 25 26 24 24 22 21 21 21 22 23 22 21 22 21 21 22 22 21 22 21 21 20 19 18 18 19 19 15 12 13 20 19 26 33 36 37 39
29 27 28 28 26 26 25 25 24 22 21 21 21 21 21 22 23 22 22 22 21 22 21 20 20 21 20 19 17 18 19 19 20 15 11 17 18 19 18 27 32 31 34
28 26 27 27 26 25 26 25 24 22 21 20 20 20 20 21 21 22 21 22 22 21 20 20 19 21 21 20 18 18 21 21 20 15 14 15 17 19 17 19 22 20 30
27 26 26 26 26 25 24 22 21 21 21 20 20 20 19 20 21 21 21 20 21 20 19 19 20 20 21 20 19 18 19 19 16 15 18 16 17 18 18 21 18 19 20
27 25 25 25 25 25 24 24 23 21 20 21 22 19 20 20 21 18 19 20 19 19 18 19 19 19 20 21 18 18 15 15 18 15 17 17 17 18 20 17 18 18 19
26 24 24 24 24 25 24 25 23 23 22 20 18 19 19 20 21 20 19 19 19 20 19 19 18 18 17 19 20 14 7 11 16 18 17 18 16 19 18 19 18 18 19
26 25 24 24 25 25 24 23 19 19 17 18 18 18 19 18 20 22 20 18 18 19 17 17 17 18 17 17 19 18 18 17 16 14 18 17 19 16 18 19 19 19 19
26 24 24 24 25 24 24 22 20 19 17 18 17 16 15 17 19 20 18 17 17 18 16 16 17 17 18 17 18 18 18 19 18 17 14 15 16 17 18 19 19 19 19
24 23 23 24 24 24 22 21 19 17 17 16 15 15 15 16 17 17 17 16 16 16 16 17 17 17 17 17 18 17 17 16 16 16 15 15 15 16 18 18 18 18 19
Lifted_Index
0 0 -0 -0 -0 -0 0 -0 -1 -1 -1 -1 -1 -1 -1 -1 -1 -1 -1 -1 -1 -1 -1 -0 0 1 1 1 0 0 -0 -1 -1 -1 -2 -2 -2 -2 -2 -2 -2 -2 -2
1 1 0 -1 -1 -1 -0 -0 -1 -1 -1 -1 -1 -1 -1 -0 -0 -0 -0 -0 0 0 -0 0 1 1 1 1 1 0 0 0 -0 -1 -1 -1 -1 -2 -2 -2 -2 -2 -1
2 1 0 -1 -1 -1 -0 -0 -1 -1 -0 -0 0 0 1 1 1 2 2 2 2 2 2 2 2 2 3 2 2 1 1 1 1 1 1 1 0 -1 -1 -2 -2 -2 -1
3 2 1 0 -0 0 0 0 0 1 1 1 2 2 2 3 3 3 4 4 4 4 4 4 4 4 4 4 3 3 2 2 3 3 2 2 1 1 -0 -1 -1 -1 -1
3 2 2 1 1 1 1 1 2 2 2 3 3 4 4 4 5 5 5 6 6 6 6 7 7 7 6 6 5 4 3 3 3 3 2 2 1 1 1 0 0 -0 -0
3 3 2 2 2 2 2 3 3 4 4 4 5 5 5 6 6 7 7 8 8 8 9 9 9 9 9 8 6 5 4 3 3 3 3 2 2 1 1 1 1 1 1
3 3 3 3 3 3 4 4 5 5 6 6 6 7 7 8 8 9 9 9 10 10 11 11 11 11 11 11 9 7 5 4 4 4 4 4 3 3 2 2 2 2 2
3 3 5 6 6 6 6 7 7 7 8 8 9 9 9 10 10 11 11 11 11 12 12 13 13 13 13 13 12 10 8 7 6 6 5 5 5 5 5 5 4 4 3
3 4 6 8 8 8 8 8 9 9 10 10 11 11 11 12 12 12 12 13 13 13 14 14 14 14 14 14 14 13 12 11 10 9 8 8 7 7 8 8 7 6 6
4 5 7 8 8 8 8 9 9 10 10 10 11 12 12 13 13 13 14 14 15 15 15 15 15 16 16 16 15 15 14 14 13 12 12 11 10 10 11 11 10 10 9
4 5 7 8 8 8 8 8 9 9 10 11 12 12 13 14 14 15 15 16 16 16 17 17 17 17 17 17 17 16 16 16 16 15 15 14 14 13 13 13 13 12 12
4 5 7 8 8 8 8 8 9 10 11 12 13 14 14 15 16 16 16 17 17 17 18 18 17 17 17 17 17 17 17 17 17 17 17 16 16 16 15 15 14 14 13
4 5 6 8 8 8 8 8 9 10 11 13 14 15 16 16 16 17 17 17 18 18 18 18 17 17 17 17 17 18 18 18 18 18 18 18 18 17 16 15 14 14 13
3 4 6 7 8 8 9 9 10 11 12 14 15 16 17 17 17 17 18 18 18 18 18 17 17 17 17 18 19 19 19 19 19 19 19 19 19 18 16 15 14 13 12
4 4 6 7 8 9 9 10 11 12 14 15 16 17 17 17 17 18 18 18 19 18 18 18 18 18 19 19 20 20 20 20 20 20 20 20 20 19 18 16 15 14 14
4 5 6 7 8 9 9 10 12 14 15 17 17 18 18 18 18 18 18 19 19 19 19 19 19 19 19 20 20 20 20 20 20 20 21 21 21 21 20 19 18 17 17
5 6 7 8 9 9 10 11 13 15 17 18 18 19 19 19 19 19 19 19 19 19 20 20 20 20 20 20 20 20 20 20 20 21 21 22 22 22 22 21 21 21 21
6 6 7 9 9 10 11 13 15 17 18 19 19 20 20 20 20 20 19 19 20 20 20 20 20 19 19 19 19 19 20 20 20 21 22 22 23 23 23 23 23 23 23
7 7 7 9 9 10 12 14 16 18 19 19 20 20 20 21 21 20 20 20 21 21 21 20 20 19 18 18 19 19 19 20 21 21 22 23 23 24 24 25 25 25 25
7 7 8 8 9 11 12 14 15 17 19 20 20 21 21 21 21 21 21 21 21 21 21 20 20 19 19 18 18 18 19 20 21 22 23 23 24 25 25 26 26 26 26
7 8 8 8 9 10 11 12 14 16 18 20 21 21 21 22 22 21 21 21 21 21 21 21 20 19 19 18 17 17 17 19 21 22 23 23 24 25 25 26 26 26 26
8 8 8 8 9 10 12 13 15 17 18 19 20 21 21 22 22 21 21 21 22 22 21 21 21 20 19 19 18 16 15 16 19 21 22 23 24 24 25 25 25 25 26
8 8 8 9 10 12 14 15 16 17 17 18 19 20 21 21 22 22 22 22 22 22 22 22 22 21 20 19 19 17 15 15 16 19 21 22 23 24 24 24 25 25 25
8 9 9 10 11 13 15 15 14 15 16 17 19 20 20 21 22 22 23 23 23 23 23 23 23 22 21 20 20 20 19 18 17 17 18 20 22 23 24 24 24 24 25
9 9 9 10 12 14 15 15 14 15 16 18 19 19 20 21 22 23 24 24 24 24 24 24 24 23 23 22 22 22 22 21 20 18 18 19 21 22 23 23 23 24 24
9 9 10 10 12 14 16 16 16 16 18 18 19 19 20 21 22 23 24 24 24 25 25 24 24 24 24 23 23 23 22 22 21 20 19 19 20 22 22 23 23 23 23